Regional Weather Roundup
Issued by NWS New Orleans/Baton Rouge, LA

Home | Current Version | Previous Version | Text Only | Print | Product List | Glossary Off
Versions: 1 2 3 4 5 6 7 8 9 10 11 12 13 14 15 16 17 18 19 20 21 22 23 24 25 26 27 28 29 30 31 32 33 34 35 36 37 38 39 40 41 42 43 44 45 46 47 48 49 50

135
ASUS44 KLIX 210605
RWRLIX
NEW ORLEANS REGIONAL WEATHER ROUNDUP
NATIONAL WEATHER SERVICE NEW ORLEANS LA
1200 AM CST FRI NOV 21 2014

NOTE: "FAIR" INDICATES FEW OR NO CLOUDS BELOW 12,000 FEET WITH NO
      SIGNIFICANT WEATHER AND/OR OBSTRUCTIONS TO VISIBILITY.
      SKY/WX - SKY CONDITION AND SIGNIFICANT WEATHER.
      TMP - AIR TEMPERATURE.     DP    - DEWPOINT TEMPERATURE.
      RH  - RELATIVE HUMIDITY.   PRES  - PRESSURE.
      HI  - HEAT INDEX.          WCI   - WIND CHILL INDEX.

*  THESE STATIONS ARE NOT NWS OR FAA STATIONS AND ARE NOT UNDER
   NWS QUALITY CONTROL.

LAZ038-040-048-061>063-065>067-069-210700-
SOUTHEAST LOUISIANA

CITY           SKY/WX    TMP DP  RH WIND       PRES   REMARKS
N.O. AUDUBON     N/A     52  46  80 MISG        N/A
6HR MIN TEMP:  52; 6HR MAX TEMP:  61;

N.O. INTL ARPT CLEAR     54  45  71 SE7       30.23S
6HR MIN TEMP:  53; 6HR MAX TEMP:  59;

N.O. LAKEFRONT CLEAR     53  46  77 SE9       30.24S
6HR MIN TEMP:  53; 6HR MAX TEMP:  60;

N.O. DOWNTOWN*   N/A     55  43  62 CALM      30.24S
6HR MIN TEMP:  55; 6HR MAX TEMP:  61;

SLIDELL        CLEAR     43  40  89 CALM      30.23F
6HR MIN TEMP:  42; 6HR MAX TEMP:  56;

BATON ROUGE    CLEAR     50  45  83 SE6       30.22F
6HR MIN TEMP:  48; 6HR MAX TEMP:  60;

BOOTHVILLE     CLEAR     55  49  80 SE3       30.25F
6HR MIN TEMP:  55; 6HR MAX TEMP:  58;

BELLE CHASSE   CLEAR     49  43  80 CALM      30.23S
6HR MIN TEMP:  49; 6HR MAX TEMP:  59;

BOGALUSA*        N/A     42  40  89 CALM      30.26S
6HR MIN TEMP:  42; 6HR MAX TEMP:  61;

NEW ROADS*       N/A     54  46  74 S6        30.22R
6HR MIN TEMP:  51; 6HR MAX TEMP:  58;

GONZALES*        N/A     48  48 100 CALM      30.23S
6HR MIN TEMP:  48; 6HR MAX TEMP:  60;

HAMMOND*       CLEAR     48  45  87 E5        30.24F
HOUMA*         CLEAR     52  48  86 SE6       30.22F
6HR MIN TEMP:  49; 6HR MAX TEMP:  54;

PORT FOURCHON* CLEAR     63  50  63 SE14      30.25F

$$

MSZ070-080>082-210700-
SOUTHERN MISSISSIPPI

CITY           SKY/WX    TMP DP  RH WIND       PRES   REMARKS
MCCOMB         CLEAR     49  43  80 S3        30.22S
6HR MIN TEMP:  46; 6HR MAX TEMP:  58;

GULFPORT       CLEAR     44  41  89 CALM      30.25S
6HR MIN TEMP:  43; 6HR MAX TEMP:  54;

BILOXI         CLEAR     46  46 100 CALM      30.25S
6HR MIN TEMP:  46; 6HR MAX TEMP:  56;

PASCAGOULA     CLEAR     38  38 100 CALM      30.26S
6HR MIN TEMP:  37; 6HR MAX TEMP:  50;


$$

COASTAL OBSERVATIONS
LAKE AND NEARSHORE STATIONS

STATION/POSITION TIME  TEMP    WIND        PRES    WAVE
                       AIR SEA DIR/SP/G            HT/PER
                 (UTC) (F)     (DEG/KT/KT) (MB)    (FT/S)
PASCAGOULA       0600   48        CALM     1023.9
WAVELAND YACHT   0600   53      10/  2/  3 1023.2
GRAND ISLE       0600   62 58  130/  6/ 10 1024.1
SOUTHWEST PASS   0600   60 74              1024.3
NEW CANAL        0600   54 53  140/  4/  7 1023.9
SHELL BEACH      0600   53 50  140/  6/  8 1023.6

OFFSHORE STATIONS

STATION/POSITION TIME  TEMP    WIND        PRES    WAVE
                       AIR SEA DIR/SP/G            HT/PER
                 (UTC) (F)     (DEG/KT/KT) (MB)    (FT/S)
64 S DAUPHIN ISL 0536   63 72   80/  6/  8 1024.7    1/ 4

$$




USA.gov is the U.S. government's official web portal to all federal, state and local government web resources and services.